Location: Columbia
(38.9520°N, 92.3340°W)
Time: 04:29:51
(UTC-06:00)

Cosmos 1603 - Visible Passes

Search period start: 21 January 2018 00:00
Search period end: 31 January 2018 00:00
Orbit: 830 x 861 km, 71.0° (Epoch: 20 January)

Date Brightness Start Highest point End Pass type
(mag) Time Alt. Az. Time Alt. Az. Time Alt. Az.
21 Jan 6.1 18:17:47 10° W 18:21:24 17° NW 18:25:02 10° NNW visible
22 Jan 6.1 18:03:43 10° W 18:07:26 17° NW 18:11:10 10° N visible
23 Jan 6.1 17:49:40 10° W 17:53:28 18° NW 17:57:18 10° N visible
